Atmospheric History
02/08/2018 18:08  to  2/9/2018 18:08
Change End Date:
To complete the export process:
1) Select all of the data below
2) Copy the data to the clipboard
3) Open a word processor such as Notepad
4) Paste the data into the word processor
5) Save the file

Date/Time (MDT), AirTemp, RH, Dewpoint ,AvgWindSpeed, GustWindSpeed, WindDirection, PrecipType, PrecipIntensity, PrecipAccumulation, PrecipRate
02/09/2018 18:06, -7, 78, -12 ,1, 3, NW, None, None, ,  
02/09/2018 17:59, -7, 77, -12 ,1, 4, W, None, None, ,  
02/09/2018 17:51, -6, 77, -11 ,3, 4, W, None, None, ,  
02/09/2018 17:49, -6, 77, -11 ,3, 3, W, None, None, ,  
02/09/2018 17:39, -5, 75, -11 ,3, 3, W, None, None, ,  
02/09/2018 17:36, -4, 76, -10 ,3, 3, W, None, None, ,  
02/09/2018 17:29, -3, 76, -9 ,1, 2, W, None, None, ,  
02/09/2018 17:21, -3, 74, -9 ,1, 2, W, None, None, ,  
02/09/2018 17:19, -3, 74, -9 ,1, 2, W, None, None, ,  
02/09/2018 17:09, -2, 73, -8 ,2, 2, NW, None, None, ,  
02/09/2018 17:06, -1, 72, -8 ,2, 2, NW, None, None, ,  
02/09/2018 16:59, -1, 72, -8 ,1, 2, NW, None, None, ,  
02/09/2018 16:51, -1, 72, -8 ,1, 2, NW, None, None, ,  
02/09/2018 16:49, -1, 71, -8 ,1, 2, NW, None, None, ,  
02/09/2018 16:39, -1, 70, -8 ,1, 2, W, None, None, ,  
02/09/2018 16:36, 0, 67, -9 ,1, 2, W, None, None, ,  
02/09/2018 16:29, 0, 66, -9 ,0, 1, N, None, None, ,  
02/09/2018 16:21, 1, 66, -8 ,0, 2, NE, None, None, ,  
02/09/2018 16:18, 0, 68, -8 ,0, 2, NE, None, None, ,  
02/09/2018 16:08, 1, 67, -8 ,2, 2, N, None, None, ,  
02/09/2018 16:07, 1, 65, -9 ,2, 2, N, None, None, ,  
02/09/2018 15:58, 0, 66, -9 ,1, 2, SW, None, None, ,  
02/09/2018 15:52, 0, 64, -9 ,1, 1, NW, None, None, ,  
02/09/2018 15:48, 1, 64, -8 ,0, 1, NW, None, None, ,  
02/09/2018 15:38, 0, 67, -9 ,1, 2, NE, None, None, ,  
02/09/2018 15:37, 0, 68, -8 ,1, 3, NE, None, None, ,  
02/09/2018 15:28, 0, 66, -8 ,2, 3, NE, None, None, ,  
02/09/2018 15:22, 2, 60, -9 ,1, 2, E, None, None, ,  
02/09/2018 15:18, 2, 59, -9 ,0, 1, E, None, None, ,  
02/09/2018 15:08, 2, 60, -8 ,0, 1, S, None, None, ,  
02/09/2018 15:07, 2, 60, -8 ,0, 1, S, None, None, ,  
02/09/2018 14:58, 3, 59, -8 ,0, 0, E, None, None, ,  
02/09/2018 14:51, 2, 63, -7 ,0, 1, NW, None, None, ,  
02/09/2018 14:48, 1, 62, -9 ,0, 2, NW, None, None, ,  
02/09/2018 14:38, 2, 65, -7 ,1, 2, N, None, None, ,  
02/09/2018 14:36, 1, 65, -8 ,1, 2, N, None, None, ,  
02/09/2018 14:28, 0, 63, -10 ,1, 3, W, None, None, ,  
02/09/2018 14:21, -1, 64, -10 ,2, 3, W, None, None, ,  
02/09/2018 14:18, -1, 64, -10 ,2, 3, NW, None, None, ,  
02/09/2018 14:08, -1, 69, -9 ,3, 4, W, None, None, ,  
02/09/2018 14:06, -1, 70, -8 ,3, 4, W, None, None, ,  
02/09/2018 13:58, -1, 71, -8 ,2, 3, NW, None, None, ,  
02/09/2018 13:51, -1, 70, -9 ,2, 3, W, None, None, ,  
02/09/2018 13:48, -1, 69, -9 ,2, 3, W, None, None, ,  
02/09/2018 13:38, -1, 72, -8 ,1, 2, NW, None, None, ,  
02/09/2018 13:36, -2, 72, -8 ,1, 2, NW, None, None, ,  
02/09/2018 13:28, -2, 70, -9 ,2, 3, NW, None, None, ,  
02/09/2018 13:21, -1, 68, -9 ,2, 2, NW, None, None, ,  
02/09/2018 13:18, -1, 62, -11 ,1, 2, W, None, None, ,  
02/09/2018 13:07, 2, 64, -7 ,0, 2, SW, None, None, ,  
02/09/2018 13:06, 1, 65, -9 ,0, 2, SW, None, None, ,  
02/09/2018 12:57, 2, 60, -9 ,1, 1, S, None, None, ,  
02/09/2018 12:51, 2, 60, -9 ,1, 1, S, None, None, ,  
02/09/2018 12:47, 1, 63, -8 ,1, 2, S, None, None, ,  
02/09/2018 12:37, 0, 67, -8 ,1, 3, SE, None, None, ,  
02/09/2018 12:36, 0, 68, -8 ,2, 3, SE, None, None, ,  
02/09/2018 12:27, -1, 69, -9 ,3, 4, S, None, None, ,  
02/09/2018 12:21, -1, 69, -9 ,2, 3, SE, None, None, ,  
02/09/2018 12:17, -1, 68, -9 ,2, 3, SE, None, None, ,  
02/09/2018 12:07, -1, 69, -9 ,1, 2, SE, None, None, ,  
02/09/2018 12:06, -1, 69, -9 ,2, 2, SE, None, None, ,  
02/09/2018 11:57, 0, 66, -8 ,1, 1, SE, None, None, ,  
02/09/2018 11:51, 0, 67, -8 ,1, 1, SE, None, None, ,  
02/09/2018 11:47, 1, 67, -8 ,1, 2, SE, None, None, ,  
02/09/2018 11:37, -1, 70, -8 ,1, 2, SE, None, None, ,  
02/09/2018 11:36, -1, 69, -8 ,2, 2, SE, None, None, ,  
02/09/2018 11:27, -1, 71, -8 ,2, 3, SE, None, None, ,  
02/09/2018 11:21, -2, 73, -8 ,2, 3, SE, None, None, ,  
02/09/2018 11:17, -2, 72, -9 ,2, 3, SE, None, None, ,  
02/09/2018 11:07, -1, 70, -9 ,2, 2, E, None, None, ,  
02/09/2018 11:06, -1, 69, -9 ,2, 2, E, None, None, ,  
02/09/2018 10:57, -1, 70, -9 ,1, 1, SE, None, None, ,  
02/09/2018 10:51, -1, 68, -9 ,1, 1, SE, None, None, ,  
02/09/2018 10:47, 0, 68, -9 ,0, 1, SE, None, None, ,  
02/09/2018 10:37, -1, 69, -9 ,0, 1, S, None, None, ,  
02/09/2018 10:36, -1, 69, -9 ,0, 1, S, None, None, ,  
02/09/2018 10:27, 0, 68, -8 ,0, 0, NW, None, None, ,  
02/09/2018 10:21, 0, 67, -8 ,0, 1, NW, None, None, ,  
02/09/2018 10:17, 0, 71, -7 ,0, 1, N, None, None, ,  
02/09/2018 10:06, -1, 70, -9 ,0, 1, N, None, None, ,  
02/09/2018 10:06, -1, 70, -9 ,0, 1, N, None, None, ,  
02/09/2018 09:56, -1, 71, -8 ,0, 1, S, Yes, , ,  
02/09/2018 09:51, -2, 73, -9 ,0, 0, S, None, None, ,  
02/09/2018 09:46, -2, 72, -9 ,0, 0, S, None, None, ,  
02/09/2018 09:36, -3, 75, -9 ,0, 1, W, None, None, ,  
02/09/2018 09:36, -3, 75, -9 ,0, 1, W, None, None, ,  
02/09/2018 09:26, -2, 74, -9 ,0, 0, N, None, None, ,  
02/09/2018 09:21, -3, 74, -10 ,0, 0, N, None, None, ,  
02/09/2018 09:16, -2, 71, -9 ,0, 1, N, None, None, ,  
02/09/2018 09:06, -4, 79, -9 ,0, 1, NW, Yes, , ,  
02/09/2018 09:06, -4, 79, -9 ,0, 1, NW, Yes, , ,  
02/09/2018 08:56, -6, 80, -10 ,1, 2, W, Yes, , ,  
02/09/2018 08:51, -6, 80, -10 ,2, 3, W, Yes, , ,  
02/09/2018 08:46, -6, 81, -10 ,2, 4, W, Yes, , ,  
02/09/2018 08:36, -6, 80, -10 ,3, 3, SW, None, None, ,  
02/09/2018 08:36, -6, 80, -10 ,3, 3, SW, None, None, ,  
02/09/2018 08:26, -5, 81, -10 ,2, 3, SW, None, None, ,  
02/09/2018 08:21, -5, 81, -9 ,2, 2, SW, None, None, ,  
02/09/2018 08:16, -5, 81, -9 ,0, 1, NW, None, None, ,  
02/09/2018 08:06, -5, 81, -9 ,0, 0, NW, Yes, , ,  
02/09/2018 08:06, -5, 81, -9 ,0, 0, NW, Yes, , ,  
02/09/2018 07:56, -5, 81, -9 ,0, 0, N, Yes, , ,  
02/09/2018 07:51, -5, 81, -9 ,0, 0, N, Yes, , ,  
02/09/2018 07:46, -5, 81, -9 ,0, 0, N, Yes, , ,  
02/09/2018 07:36, -5, 82, -9 ,0, 1, N, Yes, , ,  
02/09/2018 07:36, -5, 82, -9 ,0, 1, N, Yes, , ,  
02/09/2018 07:26, -5, 82, -9 ,0, 1, N, Yes, , ,  
02/09/2018 07:21, -5, 82, -9 ,0, 1, N, Yes, , ,  
02/09/2018 07:16, -5, 82, -9 ,0, 1, N, Yes, , ,  
02/09/2018 07:06, -5, 82, -9 ,1, 2, N, Yes, , ,  
02/09/2018 07:06, -5, 82, -9 ,1, 2, N, Yes, , ,  
02/09/2018 06:55, -4, 82, -8 ,1, 2, N, Yes, , ,  
02/09/2018 06:51, -4, 82, -8 ,1, 1, N, Yes, , ,  
02/09/2018 06:45, -4, 82, -9 ,1, 1, N, Yes, , ,  
02/09/2018 06:37, -4, 82, -9 ,1, 2, NW, Yes, , ,  
02/09/2018 06:35, -4, 82, -9 ,1, 2, NW, Yes, , ,  
02/09/2018 06:25, -4, 82, -8 ,1, 2, NW, Yes, , ,  
02/09/2018 06:22, -4, 82, -8 ,1, 2, NW, Yes, , ,  
02/09/2018 06:15, -4, 82, -8 ,1, 1, NW, Yes, , ,  
02/09/2018 06:06, -4, 82, -9 ,0, 2, N, Yes, , ,  
02/09/2018 06:05, -4, 82, -9 ,1, 2, N, Yes, , ,  
02/09/2018 05:55, -4, 81, -9 ,2, 2, N, Yes, , ,  
02/09/2018 05:52, -4, 81, -8 ,2, 3, N, Yes, , ,  
02/09/2018 05:45, -4, 81, -8 ,2, 4, N, Yes, , ,  
02/09/2018 05:37, -4, 81, -9 ,2, 3, N, Yes, , ,  
02/09/2018 05:35, -4, 81, -9 ,3, 3, N, Yes, , ,  
02/09/2018 05:25, -4, 81, -8 ,1, 3, N, Yes, , ,  
02/09/2018 05:22, -4, 81, -9 ,2, 3, N, Yes, , ,  
02/09/2018 05:15, -4, 81, -8 ,2, 4, N, Yes, , ,  
02/09/2018 05:07, -4, 81, -8 ,3, 4, N, Yes, , ,  
02/09/2018 05:05, -4, 81, -8 ,4, 4, N, Yes, , ,  
02/09/2018 04:55, -4, 81, -8 ,3, 4, N, Yes, , ,  
02/09/2018 04:52, -4, 81, -8 ,3, 6, N, Yes, , ,  
02/09/2018 04:45, -4, 81, -8 ,4, 6, N, Yes, , ,  
02/09/2018 04:37, -4, 81, -8 ,4, 6, N, Yes, , ,  
02/09/2018 04:35, -4, 81, -8 ,4, 6, N, Yes, , ,  
02/09/2018 04:25, -4, 81, -8 ,5, 6, NE, None, None, ,  
02/09/2018 04:22, -4, 81, -8 ,6, 7, N, Yes, , ,  
02/09/2018 04:15, -4, 81, -8 ,6, 7, N, Yes, , ,  
02/09/2018 04:07, -4, 82, -8 ,4, 6, N, Yes, , ,  
02/09/2018 04:05, -4, 82, -8 ,4, 4, N, Yes, , ,  
02/09/2018 03:54, -4, 82, -8 ,4, 5, N, Yes, , ,  
02/09/2018 03:52, -4, 82, -8 ,4, 6, N, Yes, , ,  
02/09/2018 03:44, -4, 82, -8 ,4, 6, N, None, None, ,  
02/09/2018 03:37, -4, 82, -8 ,4, 6, NE, Yes, , ,  
02/09/2018 03:34, -4, 82, -8 ,4, 6, NE, Yes, , ,  
02/09/2018 03:24, -4, 82, -8 ,6, 8, NE, None, None, ,  
02/09/2018 03:22, -4, 82, -8 ,6, 8, NE, None, None, ,  
02/09/2018 03:14, -4, 81, -8 ,6, 7, N, None, None, ,  
02/09/2018 03:07, -4, 81, -8 ,6, 7, NE, None, None, ,  
02/09/2018 03:04, -4, 81, -8 ,6, 7, NE, Yes, , ,  
02/09/2018 02:54, -3, 81, -8 ,6, 7, NE, None, None, ,  
02/09/2018 02:52, -3, 81, -8 ,6, 7, NE, None, None, ,  
02/09/2018 02:44, -3, 81, -8 ,6, 9, NE, None, None, ,  
02/09/2018 02:37, -3, 81, -8 ,8, 12, NE, None, None, ,  
02/09/2018 02:34, -3, 81, -8 ,10, 12, NE, None, None, ,  
02/09/2018 02:24, -3, 80, -8 ,7, 12, NE, Yes, , ,  
02/09/2018 02:22, -3, 80, -8 ,10, 12, NE, None, None, ,  
02/09/2018 02:14, -3, 82, -7 ,6, 9, NE, Yes, , ,  
02/09/2018 02:07, -3, 81, -7 ,7, 9, N, Yes, , ,  
02/09/2018 02:04, -3, 80, -7 ,6, 9, N, Yes, , ,  
02/09/2018 01:54, -3, 81, -7 ,6, 7, N, Yes, , ,  
02/09/2018 01:52, -3, 81, -7 ,6, 7, N, None, None, ,  
02/09/2018 01:44, -3, 81, -7 ,6, 7, N, Yes, , ,  
02/09/2018 01:37, -3, 81, -7 ,6, 9, N, None, None, ,  
02/09/2018 01:34, -3, 81, -7 ,7, 9, N, None, None, ,  
02/09/2018 01:24, -3, 82, -7 ,7, 9, N, None, None, ,  
02/09/2018 01:22, -3, 82, -7 ,7, 9, N, None, None, ,  
02/09/2018 01:14, -3, 83, -7 ,7, 8, N, Yes, , ,  
02/09/2018 01:07, -3, 83, -7 ,6, 7, N, Yes, , ,  
02/09/2018 01:04, -3, 83, -7 ,6, 7, N, Yes, , ,  
02/09/2018 00:54, -3, 83, -7 ,6, 7, N, Yes, , ,  
02/09/2018 00:52, -3, 83, -7 ,6, 7, N, Yes, , ,  
02/09/2018 00:43, -3, 83, -7 ,6, 7, N, Yes, , ,  
02/09/2018 00:37, -3, 83, -7 ,6, 8, N, None, None, ,  
02/09/2018 00:33, -3, 83, -7 ,7, 8, N, Yes, , ,  
02/09/2018 00:23, -3, 84, -6 ,6, 7, N, Yes, , ,  
02/09/2018 00:22, -3, 84, -6 ,6, 8, N, Yes, , ,  
02/09/2018 00:13, -3, 83, -7 ,7, 10, N, Yes, , ,  
02/09/2018 00:07, -3, 83, -7 ,7, 9, N, Yes, , ,  
02/09/2018 00:03, -3, 83, -7 ,8, 9, N, Yes, , ,  
02/08/2018 23:53, -3, 83, -7 ,6, 9, N, Yes, , ,  
02/08/2018 23:52, -3, 83, -7 ,6, 9, N, Yes, , ,  
02/08/2018 23:43, -3, 83, -7 ,8, 10, N, Yes, , ,  
02/08/2018 23:37, -3, 83, -7 ,7, 10, N, Yes, , ,  
02/08/2018 23:33, -3, 83, -6 ,9, 10, N, Yes, , ,  
02/08/2018 23:23, -3, 83, -6 ,9, 10, N, Yes, , ,  
02/08/2018 23:22, -2, 83, -6 ,8, 11, N, Yes, , ,  
02/08/2018 23:13, -2, 82, -7 ,9, 12, N, Yes, , ,  
02/08/2018 23:07, -2, 82, -6 ,8, 11, N, Yes, , ,  
02/08/2018 23:03, -2, 82, -7 ,8, 10, N, Yes, , ,  
02/08/2018 22:53, -2, 82, -7 ,7, 9, N, Yes, , ,  
02/08/2018 22:52, -2, 82, -7 ,7, 9, N, Yes, , ,  
02/08/2018 22:43, -2, 82, -7 ,7, 9, NE, None, None, ,  
02/08/2018 22:37, -2, 82, -7 ,8, 11, NE, None, None, ,  
02/08/2018 22:33, -2, 82, -6 ,9, 10, NE, None, None, ,  
02/08/2018 22:23, -2, 82, -6 ,10, 12, NE, Yes, , ,  
02/08/2018 22:22, -2, 82, -6 ,10, 12, NE, None, None, ,  
02/08/2018 22:13, -2, 82, -6 ,9, 11, NE, None, None, ,  
02/08/2018 22:07, -2, 83, -6 ,9, 11, NE, None, None, ,  
02/08/2018 22:03, -2, 83, -6 ,9, 11, NE, None, None, ,  
02/08/2018 21:53, -1, 84, -5 ,9, 9, NE, Yes, , ,  
02/08/2018 21:52, -1, 84, -5 ,8, 9, NE, Yes, , ,  
02/08/2018 21:42, -1, 84, -5 ,7, 9, NE, Yes, , ,  
02/08/2018 21:37, -1, 82, -5 ,7, 9, NE, None, None, ,  
02/08/2018 21:32, -1, 82, -5 ,7, 9, NE, Yes, , ,  
02/08/2018 21:22, -1, 81, -5 ,7, 9, NE, Yes, , ,  
02/08/2018 21:22, -1, 81, -5 ,7, 9, NE, Yes, , ,  
02/08/2018 21:12, -1, 82, -5 ,5, 7, N, Yes, , ,  
02/08/2018 21:07, -1, 82, -5 ,6, 9, NE, Yes, , ,  
02/08/2018 21:02, -1, 82, -5 ,7, 9, N, Yes, , ,  
02/08/2018 20:52, -1, 83, -5 ,6, 9, N, None, None, ,  
02/08/2018 20:52, -1, 83, -5 ,7, 9, N, None, None, ,  
02/08/2018 20:42, -1, 83, -5 ,7, 9, N, Yes, , ,  
02/08/2018 20:37, -1, 83, -4 ,6, 7, N, None, None, ,  
02/08/2018 20:32, -1, 83, -5 ,6, 7, N, Yes, , ,  
02/08/2018 20:22, -1, 82, -5 ,7, 9, N, Yes, , ,  
02/08/2018 20:22, -1, 82, -5 ,7, 9, N, Yes, , ,  
02/08/2018 20:12, -1, 83, -5 ,7, 10, N, Yes, , ,  
02/08/2018 20:07, -1, 83, -5 ,9, 11, N, None, None, ,  
02/08/2018 20:02, -1, 83, -5 ,9, 11, N, Yes, , ,  
02/08/2018 19:52, -1, 83, -5 ,9, 11, N, Yes, , ,  
02/08/2018 19:52, -1, 83, -5 ,9, 11, N, Yes, , ,  
02/08/2018 19:42, -1, 84, -5 ,7, 10, N, Yes, , ,  
02/08/2018 19:37, -1, 83, -5 ,9, 11, N, Yes, , ,  
02/08/2018 19:32, -1, 83, -5 ,9, 11, N, Yes, , ,  
02/08/2018 19:22, -1, 83, -4 ,6, 9, N, Yes, , ,  
02/08/2018 19:22, -1, 83, -4 ,6, 9, N, Yes, , ,  
02/08/2018 19:12, -1, 83, -5 ,7, 9, N, Yes, , ,  
02/08/2018 19:07, -1, 83, -5 ,7, 10, N, Yes, , ,  
02/08/2018 19:02, -1, 82, -5 ,8, 10, N, None, None, ,  
02/08/2018 18:52, -1, 83, -5 ,7, 10, N, Yes, , ,  
02/08/2018 18:52, -1, 83, -5 ,7, 10, N, Yes, , ,  
02/08/2018 18:42, -1, 82, -5 ,9, 14, N, Yes, , ,  
02/08/2018 18:37, -1, 82, -5 ,11, 14, N, None, None, ,  
02/08/2018 18:31, -1, 82, -5 ,12, 14, NE, None, None, ,  
02/08/2018 18:21, 0, 83, -4 ,10, 14, N, Yes, , ,  
02/08/2018 18:21, 0, 83, -4 ,11, 14, N, Yes, , ,  
02/08/2018 18:11, 0, 82, -4 ,12, 16, N, Yes, , ,  
Change End Date:

Copyright © 1998-2015 Vaisala, Inc.
All Rights Reserved
Send comments about the data to:
SCAN Web ® is a registered trademark of Vaisala, Inc.
SCAN Web Version 6.0